Time,TemperatureF,DewpointF,PressureIn,WindDirection,WindDirectionDegrees,WindSpeedMPH,WindSpeedGustMPH,Humidity,HourlyPrecipIn,Conditions,Clouds,dailyrainin,SoftwareType,DateUTC
2013-07-22 00:01:00,73.0,70.0,30.01,NE,41,2.0,5.0,89,0.00,,,0.06,,2013-07-22 04:01:00,
2013-07-22 00:12:00,73.0,70.0,30.00,NE,41,4.0,6.0,89,0.00,,,0.05,,2013-07-22 04:12:00,
2013-07-22 00:22:00,73.0,69.0,30.00,NE,43,4.0,6.0,88,0.00,,,0.05,,2013-07-22 04:22:00,
2013-07-22 00:33:00,73.0,69.0,30.00,NE,42,4.0,6.0,88,0.00,,,0.05,,2013-07-22 04:33:00,
2013-07-22 00:43:00,73.0,69.0,30.00,NE,42,3.0,6.0,88,0.00,,,0.05,,2013-07-22 04:43:00,
2013-07-22 01:02:00,73.0,69.0,29.98,NE,42,5.0,7.0,87,0.00,,,0.05,,2013-07-22 05:02:00,
2013-07-22 01:11:00,73.0,69.0,29.98,NE,36,4.0,7.0,87,0.00,,,0.05,,2013-07-22 05:11:00,
2013-07-22 01:22:00,72.0,68.0,29.98,NE,38,3.0,7.0,86,0.00,,,0.05,,2013-07-22 05:22:00,
2013-07-22 01:32:00,72.0,68.0,29.98,NE,38,4.0,6.0,87,0.00,,,0.05,,2013-07-22 05:32:00,
2013-07-22 01:43:00,72.0,68.0,29.97,NE,38,4.0,5.0,88,0.00,,,0.05,,2013-07-22 05:43:00,
2013-07-22 01:52:00,71.0,67.0,29.97,NE,38,3.0,5.0,88,0.00,,,0.05,,2013-07-22 05:52:00,
2013-07-22 02:01:00,71.0,68.0,29.98,NE,38,3.0,5.0,89,0.00,,,0.05,,2013-07-22 06:01:00,
2013-07-22 02:11:00,71.0,68.0,29.98,NE,37,3.0,7.0,89,0.00,,,0.04,,2013-07-22 06:11:00,
2013-07-22 02:22:00,71.0,68.0,29.97,NE,37,3.0,4.0,89,0.00,,,0.04,,2013-07-22 06:22:00,
2013-07-22 02:33:00,71.0,68.0,29.97,NE,38,4.0,5.0,90,0.00,,,0.04,,2013-07-22 06:33:00,
2013-07-22 02:43:00,70.0,67.0,29.97,NE,38,4.0,5.0,90,0.00,,,0.04,,2013-07-22 06:43:00,
2013-07-22 02:52:00,70.0,67.0,29.96,NNE,32,4.0,6.0,90,0.00,,,0.04,,2013-07-22 06:52:00,
2013-07-22 03:01:00,70.0,67.0,29.96,NNE,31,1.0,5.0,91,0.00,,,0.04,,2013-07-22 07:01:00,
2013-07-22 03:12:00,70.0,67.0,29.96,NNE,31,2.0,4.0,91,0.00,,,0.04,,2013-07-22 07:12:00,
2013-07-22 03:22:00,70.0,67.0,29.96,NNE,31,3.0,5.0,91,0.00,,,0.04,,2013-07-22 07:22:00,
2013-07-22 03:33:00,70.0,68.0,29.95,NNE,31,3.0,5.0,92,0.00,,,0.04,,2013-07-22 07:33:00,
2013-07-22 03:43:00,70.0,68.0,29.94,NE,34,5.0,6.0,92,0.00,,,0.04,,2013-07-22 07:43:00,
2013-07-22 03:52:00,70.0,68.0,29.94,NE,49,4.0,7.0,92,0.00,,,0.04,,2013-07-22 07:52:00,
2013-07-22 04:02:00,70.0,68.0,29.94,NE,40,6.0,7.0,92,0.00,,,0.04,,2013-07-22 08:02:00,
2013-07-22 04:11:00,70.0,68.0,29.94,NE,40,4.0,6.0,92,0.00,,,0.03,,2013-07-22 08:11:00,
2013-07-22 04:22:00,70.0,68.0,29.93,NE,40,5.0,7.0,92,0.00,,,0.03,,2013-07-22 08:22:00,
2013-07-22 04:32:00,70.0,68.0,29.93,NE,40,5.0,7.0,92,0.00,,,0.03,,2013-07-22 08:32:00,
2013-07-22 04:43:00,70.0,68.0,29.93,NE,40,4.0,7.0,92,0.00,,,0.03,,2013-07-22 08:43:00,
2013-07-22 04:52:00,70.0,68.0,29.93,NE,40,4.0,6.0,92,0.00,,,0.03,,2013-07-22 08:52:00,
2013-07-22 05:02:00,70.0,68.0,29.93,NE,40,1.0,9.0,92,0.00,,,0.03,,2013-07-22 09:02:00,
2013-07-22 05:11:00,70.0,68.0,29.93,NE,40,1.0,6.0,92,0.00,,,0.03,,2013-07-22 09:11:00,
2013-07-22 05:22:00,71.0,69.0,29.94,NE,40,3.0,5.0,92,0.00,,,0.03,,2013-07-22 09:22:00,
2013-07-22 05:33:00,71.0,69.0,29.93,NE,40,2.0,3.0,92,0.00,,,0.03,,2013-07-22 09:33:00,
2013-07-22 05:42:00,71.0,69.0,29.94,NE,40,0.0,4.0,92,0.00,,,0.03,,2013-07-22 09:42:00,
2013-07-22 05:52:00,71.0,69.0,29.93,NE,41,3.0,6.0,93,0.00,,,0.03,,2013-07-22 09:52:00,
2013-07-22 06:02:00,70.0,68.0,29.93,NE,40,0.0,6.0,93,0.00,,,0.03,,2013-07-22 10:02:00,
2013-07-22 06:11:00,70.0,68.0,29.94,NE,40,0.0,0.0,94,0.00,,,0.03,,2013-07-22 10:11:00,
2013-07-22 06:22:00,70.0,68.0,29.93,NE,40,0.0,0.0,94,0.00,,,0.03,,2013-07-22 10:22:00,
2013-07-22 06:32:00,70.0,68.0,29.93,NE,40,0.0,0.0,94,0.00,,,0.03,,2013-07-22 10:32:00,
2013-07-22 06:43:00,70.0,68.0,29.93,NE,40,0.0,0.0,94,0.00,,,0.03,,2013-07-22 10:43:00,
2013-07-22 06:52:00,70.0,68.0,29.94,NE,40,0.0,7.0,95,0.00,,,0.03,,2013-07-22 10:52:00,
2013-07-22 07:02:00,70.0,68.0,29.94,NE,40,2.0,3.0,95,0.00,,,0.03,,2013-07-22 11:02:00,
2013-07-22 07:11:00,70.0,68.0,29.94,SW,234,0.0,4.0,95,0.00,,,0.03,,2013-07-22 11:11:00,
2013-07-22 07:23:00,70.0,68.0,29.94,WNW,296,2.0,6.0,95,0.00,,,0.03,,2013-07-22 11:23:00,
2013-07-22 07:32:00,70.0,68.0,29.94,WNW,296,2.0,6.0,95,0.00,,,0.03,,2013-07-22 11:32:00,
2013-07-22 07:43:00,69.0,68.0,29.93,NNW,334,7.0,10.0,95,0.00,,,0.03,,2013-07-22 11:43:00,
2013-07-22 07:52:00,69.0,68.0,29.93,WNW,291,4.0,12.0,95,0.00,,,0.03,,2013-07-22 11:52:00,
2013-07-22 08:02:00,69.0,68.0,29.93,NNW,333,5.0,10.0,95,0.00,,,0.03,,2013-07-22 12:02:00,
2013-07-22 08:11:00,69.0,68.0,29.93,NW,315,6.0,10.0,95,0.00,,,0.02,,2013-07-22 12:11:00,
2013-07-22 08:22:00,68.0,67.0,29.94,NNW,330,2.0,10.0,95,0.00,,,0.02,,2013-07-22 12:22:00,
2013-07-22 08:33:00,68.0,67.0,29.94,NNW,331,5.0,9.0,96,0.00,,,0.02,,2013-07-22 12:33:00,
2013-07-22 08:43:00,68.0,67.0,29.94,NW,312,1.0,6.0,96,0.00,,,0.02,,2013-07-22 12:43:00,
2013-07-22 08:53:00,68.0,67.0,29.95,NW,312,0.0,2.0,96,0.00,,,0.02,,2013-07-22 12:53:00,
2013-07-22 09:01:00,69.0,68.0,29.94,NW,323,2.0,7.0,96,0.00,,,0.02,,2013-07-22 13:01:00,
2013-07-22 09:11:00,69.0,68.0,29.94,NNW,335,4.0,6.0,96,0.00,,,0.02,,2013-07-22 13:11:00,
2013-07-22 09:43:00,69.0,68.0,29.96,ESE,120,5.0,7.0,96,0.00,,,0.02,,2013-07-22 13:43:00,
2013-07-22 09:53:00,69.0,68.0,29.96,East,80,3.0,7.0,96,0.00,,,0.02,,2013-07-22 13:53:00,
2013-07-22 10:11:00,69.0,68.0,29.95,NE,37,9.0,10.0,96,0.00,,,0.02,,2013-07-22 14:11:00,
2013-07-22 10:22:00,68.0,67.0,29.95,NNE,28,5.0,10.0,96,0.01,,,0.03,,2013-07-22 14:22:00,
2013-07-22 10:32:00,68.0,67.0,29.94,NE,40,6.0,9.0,96,0.01,,,0.03,,2013-07-22 14:32:00,
2013-07-22 10:53:00,69.0,68.0,29.92,NNE,28,3.0,6.0,96,0.01,,,0.03,,2013-07-22 14:53:00,
2013-07-22 11:11:00,70.0,69.0,29.92,NNE,28,4.0,6.0,96,0.01,,,0.03,,2013-07-22 15:11:00,
2013-07-22 11:22:00,71.0,70.0,29.92,NNE,28,5.0,6.0,96,0.00,,,0.03,,2013-07-22 15:22:00,
2013-07-22 11:33:00,71.0,69.0,29.93,NNE,31,5.0,6.0,95,0.00,,,0.03,,2013-07-22 15:33:00,
2013-07-22 11:43:00,71.0,69.0,29.92,NNE,25,1.0,6.0,95,0.00,,,0.03,,2013-07-22 15:43:00,
2013-07-22 11:52:00,71.0,69.0,29.93,NNE,25,3.0,5.0,94,0.00,,,0.03,,2013-07-22 15:52:00,
2013-07-22 12:32:00,72.0,70.0,29.93,NNE,21,3.0,5.0,93,0.00,,,0.02,,2013-07-22 16:32:00,
2013-07-22 12:43:00,72.0,70.0,29.93,NNE,21,3.0,5.0,93,0.00,,,0.02,,2013-07-22 16:43:00,
2013-07-22 12:52:00,72.0,70.0,29.93,NNE,21,3.0,5.0,93,0.00,,,0.02,,2013-07-22 16:52:00,
2013-07-22 13:01:00,72.0,70.0,29.93,NNE,21,3.0,5.0,93,0.00,,,0.02,,2013-07-22 17:01:00,
2013-07-22 19:01:00,81.0,73.0,29.84,NNE,15,3.0,6.0,76,0.00,,,-99.99,,2013-07-22 23:01:00,
2013-07-22 19:11:00,80.0,72.0,29.83,NNE,17,5.0,7.0,77,0.00,,,-99.99,,2013-07-22 23:11:00,
2013-07-22 19:32:00,80.0,72.0,29.84,NNW,330,2.0,6.0,77,0.00,,,-99.99,,2013-07-22 23:32:00,
2013-07-22 19:42:00,80.0,72.0,29.84,NNW,329,3.0,5.0,77,0.00,,,-99.99,,2013-07-22 23:42:00,
2013-07-22 19:52:00,79.0,72.0,29.84,NNW,328,2.0,4.0,79,0.00,,,-99.99,,2013-07-22 23:52:00,
2013-07-22 20:01:00,78.0,71.0,29.84,NNW,327,0.0,7.0,79,0.00,,,-99.99,,2013-07-23 00:01:00,
2013-07-22 20:12:00,78.0,71.0,29.84,North,10,2.0,5.0,80,0.00,,,-99.99,,2013-07-23 00:12:00,
2013-07-22 20:22:00,78.0,72.0,29.85,North,5,0.0,4.0,81,0.00,,,-99.99,,2013-07-23 00:22:00,
2013-07-22 20:32:00,77.0,71.0,29.84,North,360,0.0,3.0,82,0.00,,,-99.99,,2013-07-23 00:32:00,
2013-07-22 20:43:00,77.0,71.0,29.84,North,360,1.0,3.0,82,0.00,,,-99.99,,2013-07-23 00:43:00,
2013-07-22 20:52:00,76.0,70.0,29.84,North,360,0.0,0.0,83,0.00,,,-99.99,,2013-07-23 00:52:00,
2013-07-22 21:01:00,76.0,70.0,29.84,North,360,0.0,1.0,83,0.00,,,0.00,,2013-07-23 01:01:00,
2013-07-22 21:11:00,75.0,70.0,29.84,North,5,0.0,0.0,84,0.00,,,0.00,,2013-07-23 01:11:00,
2013-07-22 21:22:00,74.0,69.0,29.84,North,5,0.0,0.0,85,0.00,,,0.00,,2013-07-23 01:22:00,
2013-07-22 21:32:00,74.0,70.0,29.84,North,5,0.0,0.0,86,0.00,,,0.00,,2013-07-23 01:32:00,
2013-07-22 21:43:00,73.0,69.0,29.85,North,5,0.0,0.0,87,0.00,,,0.00,,2013-07-23 01:43:00,
2013-07-22 21:53:00,73.0,69.0,29.85,North,5,0.0,0.0,88,0.00,,,0.00,,2013-07-23 01:53:00,
2013-07-22 22:11:00,72.0,69.0,29.86,North,360,0.0,0.0,90,0.00,,,0.00,,2013-07-23 02:11:00,
2013-07-22 22:22:00,71.0,68.0,29.86,North,360,1.0,2.0,90,0.00,,,0.00,,2013-07-23 02:22:00,
2013-07-22 22:33:00,71.0,68.0,29.87,North,360,1.0,2.0,90,0.00,,,0.00,,2013-07-23 02:33:00,
2013-07-22 22:53:00,70.0,67.0,29.86,North,5,0.0,0.0,91,0.00,,,0.00,,2013-07-23 02:53:00,
2013-07-22 23:02:00,70.0,68.0,29.87,North,360,0.0,0.0,92,0.00,,,0.00,,2013-07-23 03:02:00,
2013-07-22 23:43:00,69.0,67.0,29.87,North,5,0.0,0.0,93,0.00,,,0.00,,2013-07-23 03:43:00,
2013-07-22 23:52:00,68.0,66.0,29.87,North,5,0.0,0.0,93,0.00,,,0.00,,2013-07-23 03:52:00,